Year,Month,Day,Hour,Minute,Value (Times are PST for temperature in C)
2014,11,27,00,00,10.90
2014,11,27,00,01,10.90
2014,11,27,00,02,10.90
2014,11,27,00,03,10.90
2014,11,27,00,04,10.90
2014,11,27,00,05,10.90
2014,11,27,00,06,10.90
2014,11,27,00,07,10.90
2014,11,27,00,08,10.90
2014,11,27,00,09,10.90
2014,11,27,00,10,10.90
2014,11,27,00,11,10.90
2014,11,27,00,12,10.90
2014,11,27,00,13,11.00
2014,11,27,00,14,11.00
2014,11,27,00,15,11.00
2014,11,27,00,16,11.00
2014,11,27,00,17,11.00
2014,11,27,00,18,11.10
2014,11,27,00,19,11.10
2014,11,27,00,20,11.10
2014,11,27,00,21,11.10
2014,11,27,00,22,11.10
2014,11,27,00,23,11.10
2014,11,27,00,24,11.10
2014,11,27,00,25,11.10
2014,11,27,00,26,11.00
2014,11,27,00,27,11.00
2014,11,27,00,28,11.00
2014,11,27,00,29,11.00
2014,11,27,00,30,11.00
2014,11,27,00,31,11.00
2014,11,27,00,32,10.90
2014,11,27,00,33,10.90
2014,11,27,00,34,10.90
2014,11,27,00,35,10.90
2014,11,27,00,36,10.90
2014,11,27,00,37,10.90
2014,11,27,00,38,10.90
2014,11,27,00,39,10.90
2014,11,27,00,40,10.90
2014,11,27,00,41,10.90
2014,11,27,00,42,10.80
2014,11,27,00,43,10.80
2014,11,27,00,44,10.80
2014,11,27,00,45,10.80
2014,11,27,00,46,10.80
2014,11,27,00,47,10.80
2014,11,27,00,48,10.80
2014,11,27,00,49,10.80
2014,11,27,00,50,10.70
2014,11,27,00,51,10.80
2014,11,27,00,52,10.70
2014,11,27,00,53,10.70
2014,11,27,00,54,10.80
2014,11,27,00,55,10.80
2014,11,27,00,56,10.80
2014,11,27,00,57,10.70
2014,11,27,00,58,10.70
2014,11,27,00,59,10.70
2014,11,27,01,00,10.70
2014,11,27,01,01,10.70
2014,11,27,01,02,10.70
2014,11,27,01,03,10.70
2014,11,27,01,04,10.60
2014,11,27,01,05,10.60
2014,11,27,01,06,10.60
2014,11,27,01,07,10.60
2014,11,27,01,08,10.60
2014,11,27,01,09,10.50
2014,11,27,01,10,10.50
2014,11,27,01,11,10.50
2014,11,27,01,12,10.60
2014,11,27,01,13,10.60
2014,11,27,01,14,10.60
2014,11,27,01,15,10.60
2014,11,27,01,16,10.60
2014,11,27,01,17,10.60
2014,11,27,01,18,10.60
2014,11,27,01,19,10.60
2014,11,27,01,20,10.50
2014,11,27,01,21,10.50
2014,11,27,01,22,10.40
2014,11,27,01,23,10.40
2014,11,27,01,24,10.40
2014,11,27,01,25,10.40
2014,11,27,01,26,10.40
2014,11,27,01,27,10.40
2014,11,27,01,28,10.40
2014,11,27,01,29,10.40
2014,11,27,01,30,10.30
2014,11,27,01,31,10.30
2014,11,27,01,32,10.30
2014,11,27,01,33,10.30
2014,11,27,01,34,10.30
2014,11,27,01,35,10.30
2014,11,27,01,36,10.30
2014,11,27,01,37,10.30
2014,11,27,01,38,10.30
2014,11,27,01,39,10.30
2014,11,27,01,40,10.30
2014,11,27,01,41,10.30
2014,11,27,01,42,10.30
2014,11,27,01,43,10.30
2014,11,27,01,44,10.40
2014,11,27,01,45,10.40
2014,11,27,01,46,10.40
2014,11,27,01,47,10.40
2014,11,27,01,48,10.40
2014,11,27,01,49,10.40
2014,11,27,01,50,10.50
2014,11,27,01,51,10.60
2014,11,27,01,52,10.60
2014,11,27,01,53,10.70
2014,11,27,01,54,10.70
2014,11,27,01,55,10.70
2014,11,27,01,56,10.60
2014,11,27,01,57,10.60
2014,11,27,01,58,10.70
2014,11,27,01,59,10.70
2014,11,27,02,00,10.70
2014,11,27,02,01,10.70
2014,11,27,02,02,10.70
2014,11,27,02,03,10.70
2014,11,27,02,04,10.60
2014,11,27,02,05,10.70
2014,11,27,02,06,10.60
2014,11,27,02,07,10.70
2014,11,27,02,08,10.70
2014,11,27,02,09,10.70
2014,11,27,02,10,10.70
2014,11,27,02,11,10.70
2014,11,27,02,12,10.70
2014,11,27,02,13,10.70
2014,11,27,02,14,10.70
2014,11,27,02,15,10.70
2014,11,27,02,16,10.70
2014,11,27,02,17,10.70
2014,11,27,02,18,10.70
2014,11,27,02,19,10.70
2014,11,27,02,20,10.70
2014,11,27,02,21,10.70
2014,11,27,02,22,10.70
2014,11,27,02,23,10.60
2014,11,27,02,24,10.60
2014,11,27,02,25,10.60
2014,11,27,02,26,10.60
2014,11,27,02,27,10.60
2014,11,27,02,28,10.60
2014,11,27,02,29,10.60
2014,11,27,02,30,10.60
2014,11,27,02,31,10.60
2014,11,27,02,32,10.60
2014,11,27,02,33,10.70
2014,11,27,02,34,10.70
2014,11,27,02,35,10.70
2014,11,27,02,36,10.80
2014,11,27,02,37,10.80
2014,11,27,02,38,10.80
2014,11,27,02,39,10.90
2014,11,27,02,40,10.90
2014,11,27,02,41,11.00
2014,11,27,02,42,11.00
2014,11,27,02,43,11.00
2014,11,27,02,44,11.10
2014,11,27,02,45,11.10
2014,11,27,02,46,11.10
2014,11,27,02,47,11.20
2014,11,27,02,48,11.20
2014,11,27,02,49,11.20
2014,11,27,02,50,11.20
2014,11,27,02,51,11.20
2014,11,27,02,52,11.20
2014,11,27,02,53,11.20
2014,11,27,02,54,11.20
2014,11,27,02,55,11.30
2014,11,27,02,56,11.30
2014,11,27,02,57,11.30
2014,11,27,02,58,11.30
2014,11,27,02,59,11.30
2014,11,27,03,00,11.30
2014,11,27,03,01,11.30
2014,11,27,03,02,11.30
2014,11,27,03,03,11.20
2014,11,27,03,04,11.20
2014,11,27,03,05,11.20
2014,11,27,03,06,11.20
2014,11,27,03,07,11.20
2014,11,27,03,08,11.20
2014,11,27,03,09,11.20
2014,11,27,03,10,11.20
2014,11,27,03,11,11.20
2014,11,27,03,12,11.20
2014,11,27,03,13,11.20
2014,11,27,03,14,11.10
2014,11,27,03,15,11.10
2014,11,27,03,16,11.10
2014,11,27,03,17,11.10
2014,11,27,03,18,11.10
2014,11,27,03,19,11.10
2014,11,27,03,20,11.10
2014,11,27,03,21,11.20
2014,11,27,03,22,11.20
2014,11,27,03,23,11.20
2014,11,27,03,24,11.20
2014,11,27,03,25,11.20
2014,11,27,03,26,11.20
2014,11,27,03,27,11.20
2014,11,27,03,28,11.20
2014,11,27,03,29,11.20
2014,11,27,03,30,11.30
2014,11,27,03,31,11.30
2014,11,27,03,32,11.30
2014,11,27,03,33,11.30
2014,11,27,03,34,11.30
2014,11,27,03,35,11.30
2014,11,27,03,36,11.30
2014,11,27,03,37,11.30
2014,11,27,03,38,11.30
2014,11,27,03,39,11.30
2014,11,27,03,40,11.30
2014,11,27,03,41,11.30
2014,11,27,03,42,11.30
2014,11,27,03,43,11.40
2014,11,27,03,44,11.40
2014,11,27,03,45,11.50
2014,11,27,03,46,11.50
2014,11,27,03,47,11.50
2014,11,27,03,48,11.60
2014,11,27,03,49,11.50
2014,11,27,03,50,11.50
2014,11,27,03,51,11.50
2014,11,27,03,52,11.50
2014,11,27,03,53,11.40
2014,11,27,03,54,11.40
2014,11,27,03,55,11.40
2014,11,27,03,56,11.40
2014,11,27,03,57,11.40
2014,11,27,03,58,11.30
2014,11,27,03,59,11.30
2014,11,27,04,00,11.30
2014,11,27,04,01,11.30
2014,11,27,04,02,11.30
2014,11,27,04,03,11.30
2014,11,27,04,04,11.30
2014,11,27,04,05,11.30
2014,11,27,04,06,11.20
2014,11,27,04,07,11.20
2014,11,27,04,08,11.20
2014,11,27,04,09,11.20
2014,11,27,04,10,11.20
2014,11,27,04,11,11.20
2014,11,27,04,12,11.20
2014,11,27,04,13,11.20
2014,11,27,04,14,11.20
2014,11,27,04,15,11.20
2014,11,27,04,16,11.20
2014,11,27,04,17,11.20
2014,11,27,04,18,11.20
2014,11,27,04,19,11.20
2014,11,27,04,20,11.20
2014,11,27,04,21,11.20
2014,11,27,04,22,11.20
2014,11,27,04,23,11.20
2014,11,27,04,24,11.20
2014,11,27,04,25,11.20
2014,11,27,04,26,11.10
2014,11,27,04,27,11.10
2014,11,27,04,28,11.10
2014,11,27,04,29,11.10
2014,11,27,04,30,11.00
2014,11,27,04,31,11.00
2014,11,27,04,32,11.10
2014,11,27,04,33,11.10
2014,11,27,04,34,11.10
2014,11,27,04,35,11.10
2014,11,27,04,36,11.10
2014,11,27,04,37,11.10
2014,11,27,04,38,11.10
2014,11,27,04,39,11.10
2014,11,27,04,40,11.10
2014,11,27,04,41,11.10
2014,11,27,04,42,11.20
2014,11,27,04,43,11.20
2014,11,27,04,44,11.20
2014,11,27,04,45,11.20
2014,11,27,04,46,11.20
2014,11,27,04,47,11.30
2014,11,27,04,48,11.30
2014,11,27,04,49,11.30
2014,11,27,04,50,11.30
2014,11,27,04,51,11.30
2014,11,27,04,52,11.30
2014,11,27,04,53,11.30
2014,11,27,04,54,11.30
2014,11,27,04,55,11.30
2014,11,27,04,56,11.30
2014,11,27,04,57,11.30
2014,11,27,04,58,11.30
2014,11,27,04,59,11.40
2014,11,27,05,00,11.40
2014,11,27,05,01,11.40
2014,11,27,05,02,11.40
2014,11,27,05,03,11.50
2014,11,27,05,04,11.50
2014,11,27,05,05,11.50
2014,11,27,05,06,11.50
2014,11,27,05,07,11.50
2014,11,27,05,08,11.50
2014,11,27,05,09,11.50
2014,11,27,05,10,11.50
2014,11,27,05,11,11.50
2014,11,27,05,12,11.50
2014,11,27,05,13,11.50
2014,11,27,05,14,11.50
2014,11,27,05,15,11.60
2014,11,27,05,16,11.60
2014,11,27,05,17,11.50
2014,11,27,05,18,11.60
2014,11,27,05,19,11.50
2014,11,27,05,20,11.60
2014,11,27,05,21,11.60
2014,11,27,05,22,11.60
2014,11,27,05,23,11.50
2014,11,27,05,24,11.60
2014,11,27,05,25,11.50
2014,11,27,05,26,11.50
2014,11,27,05,27,11.50
2014,11,27,05,28,11.50
2014,11,27,05,29,11.50
2014,11,27,05,30,11.50
2014,11,27,05,31,11.50
2014,11,27,05,32,11.60
2014,11,27,05,33,11.60
2014,11,27,05,34,11.60
2014,11,27,05,35,11.60
2014,11,27,05,36,11.60
2014,11,27,05,37,11.60
2014,11,27,05,38,11.60
2014,11,27,05,39,11.60
2014,11,27,05,40,11.60
2014,11,27,05,41,11.60
2014,11,27,05,42,11.60
2014,11,27,05,43,11.60
2014,11,27,05,44,11.50
2014,11,27,05,45,11.50
2014,11,27,05,46,11.50
2014,11,27,05,47,11.50
2014,11,27,05,48,11.50
2014,11,27,05,49,11.50
2014,11,27,05,50,11.50
2014,11,27,05,51,11.50
2014,11,27,05,52,11.50
2014,11,27,05,53,11.50
2014,11,27,05,54,11.50
2014,11,27,05,55,11.40
2014,11,27,05,56,11.50
2014,11,27,05,57,11.50
2014,11,27,05,58,11.50
2014,11,27,05,59,11.50
2014,11,27,06,00,11.40
2014,11,27,06,01,11.40
2014,11,27,06,02,11.40
2014,11,27,06,03,11.40
2014,11,27,06,04,11.40
2014,11,27,06,05,11.30
2014,11,27,06,06,11.30
2014,11,27,06,07,11.30
2014,11,27,06,08,11.30
2014,11,27,06,09,11.30
2014,11,27,06,10,11.20
2014,11,27,06,11,11.20
2014,11,27,06,12,11.20
2014,11,27,06,13,11.20
2014,11,27,06,14,11.20
2014,11,27,06,15,11.20
2014,11,27,06,16,11.20
2014,11,27,06,17,11.20
2014,11,27,06,18,11.20
2014,11,27,06,19,11.20
2014,11,27,06,20,11.20
2014,11,27,06,21,11.20
2014,11,27,06,22,11.20
2014,11,27,06,23,11.20
2014,11,27,06,24,11.20
2014,11,27,06,25,11.20
2014,11,27,06,26,11.20
2014,11,27,06,27,11.20
2014,11,27,06,28,11.20
2014,11,27,06,29,11.20
2014,11,27,06,30,11.20
2014,11,27,06,31,11.20
2014,11,27,06,32,11.20
2014,11,27,06,33,11.20
2014,11,27,06,34,11.20
2014,11,27,06,35,11.20
2014,11,27,06,36,11.20
2014,11,27,06,37,11.20
2014,11,27,06,38,11.20
2014,11,27,06,39,11.20
2014,11,27,06,40,11.20
2014,11,27,06,41,11.20
2014,11,27,06,42,11.20
2014,11,27,06,43,11.20
2014,11,27,06,44,11.20
2014,11,27,06,45,11.20
2014,11,27,06,46,11.20
2014,11,27,06,47,11.20
2014,11,27,06,48,11.20
2014,11,27,06,49,11.20
2014,11,27,06,50,11.20
2014,11,27,06,51,11.20
2014,11,27,06,52,11.20
2014,11,27,06,53,11.20
2014,11,27,06,54,11.20
2014,11,27,06,55,11.10
2014,11,27,06,56,11.10
2014,11,27,06,57,11.10
2014,11,27,06,58,11.10
2014,11,27,06,59,11.10
2014,11,27,07,00,11.10
2014,11,27,07,01,11.00
2014,11,27,07,02,11.00
2014,11,27,07,03,11.00
2014,11,27,07,04,11.00
2014,11,27,07,05,11.00
2014,11,27,07,06,11.00
2014,11,27,07,07,11.00
2014,11,27,07,08,10.90
2014,11,27,07,09,10.90
2014,11,27,07,10,10.90
2014,11,27,07,11,10.90
2014,11,27,07,12,10.90
2014,11,27,07,13,10.90
2014,11,27,07,14,10.90
2014,11,27,07,15,10.90
2014,11,27,07,16,10.90
2014,11,27,07,17,10.90
2014,11,27,07,18,10.90
2014,11,27,07,19,10.90
2014,11,27,07,20,10.90
2014,11,27,07,21,10.90
2014,11,27,07,22,10.90
2014,11,27,07,23,10.90
2014,11,27,07,24,10.90
2014,11,27,07,25,10.90
2014,11,27,07,26,10.90
2014,11,27,07,27,10.90
2014,11,27,07,28,10.90
2014,11,27,07,29,10.90
2014,11,27,07,30,10.90
2014,11,27,07,31,10.90
2014,11,27,07,32,10.90
2014,11,27,07,33,10.90
2014,11,27,07,34,10.90
2014,11,27,07,35,10.90
2014,11,27,07,36,10.90
2014,11,27,07,37,10.90
2014,11,27,07,38,10.90
2014,11,27,07,39,10.90
2014,11,27,07,40,10.90
2014,11,27,07,41,10.90
2014,11,27,07,42,10.90
2014,11,27,07,43,10.90
2014,11,27,07,44,10.90
2014,11,27,07,45,10.90
2014,11,27,07,46,10.90
2014,11,27,07,47,10.90
2014,11,27,07,48,10.90
2014,11,27,07,49,10.90
2014,11,27,07,50,10.90
2014,11,27,07,51,10.90
2014,11,27,07,52,10.90
2014,11,27,07,53,10.90
2014,11,27,07,54,10.90
2014,11,27,07,55,10.90
2014,11,27,07,56,10.90
2014,11,27,07,57,10.90
2014,11,27,07,58,10.90
2014,11,27,07,59,10.90
2014,11,27,08,00,10.90
2014,11,27,08,01,10.90
2014,11,27,08,02,10.90
2014,11,27,08,03,10.90
2014,11,27,08,04,10.90
2014,11,27,08,05,10.90
2014,11,27,08,06,10.90
2014,11,27,08,07,10.90
2014,11,27,08,08,10.90
2014,11,27,08,09,10.90
2014,11,27,08,10,10.90
2014,11,27,08,11,10.90
2014,11,27,08,12,10.90
2014,11,27,08,13,10.90
2014,11,27,08,14,10.90
2014,11,27,08,15,10.90
2014,11,27,08,16,10.90
2014,11,27,08,17,10.90
2014,11,27,08,18,10.80
2014,11,27,08,19,10.80
2014,11,27,08,20,10.80
2014,11,27,08,21,10.80
2014,11,27,08,22,10.80
2014,11,27,08,23,10.80
2014,11,27,08,24,10.80
2014,11,27,08,25,10.80
2014,11,27,08,26,10.80
2014,11,27,08,27,10.90
2014,11,27,08,28,10.90
2014,11,27,08,29,10.90
2014,11,27,08,30,10.90
2014,11,27,08,31,10.90
2014,11,27,08,32,10.90
2014,11,27,08,33,10.90
2014,11,27,08,34,10.90
2014,11,27,08,35,10.90
2014,11,27,08,36,10.90
2014,11,27,08,37,10.90
2014,11,27,08,38,10.90
2014,11,27,08,39,10.90
2014,11,27,08,40,10.90
2014,11,27,08,41,10.90
2014,11,27,08,42,11.00
2014,11,27,08,43,11.00
2014,11,27,08,44,11.00
2014,11,27,08,45,11.00
2014,11,27,08,46,11.00
2014,11,27,08,47,11.10
2014,11,27,08,48,11.10
2014,11,27,08,49,11.10
2014,11,27,08,50,11.10
2014,11,27,08,51,11.10
2014,11,27,08,52,11.10
2014,11,27,08,53,11.20
2014,11,27,08,54,11.20
2014,11,27,08,55,11.20
2014,11,27,08,56,11.20
2014,11,27,08,57,11.20
2014,11,27,08,58,11.20
2014,11,27,08,59,11.20
2014,11,27,09,00,11.20
2014,11,27,09,01,11.20
2014,11,27,09,02,11.20
2014,11,27,09,03,11.20
2014,11,27,09,04,11.20
2014,11,27,09,05,11.20
2014,11,27,09,06,11.20
2014,11,27,09,07,11.20
2014,11,27,09,08,11.30
2014,11,27,09,09,11.30
2014,11,27,09,10,11.30
2014,11,27,09,11,11.30
2014,11,27,09,12,11.30
2014,11,27,09,13,11.30
2014,11,27,09,14,11.30
2014,11,27,09,15,11.30
2014,11,27,09,16,11.20
2014,11,27,09,17,11.20
2014,11,27,09,18,11.20
2014,11,27,09,19,11.20
2014,11,27,09,20,11.20
2014,11,27,09,21,11.20
2014,11,27,09,22,11.20
2014,11,27,09,23,11.30
2014,11,27,09,24,11.30
2014,11,27,09,25,11.30
2014,11,27,09,26,11.30
2014,11,27,09,27,11.40
2014,11,27,09,28,11.40
2014,11,27,09,29,11.40
2014,11,27,09,30,11.50
2014,11,27,09,31,11.50
2014,11,27,09,32,11.60
2014,11,27,09,33,11.60
2014,11,27,09,34,11.60
2014,11,27,09,35,11.60
2014,11,27,09,36,11.70
2014,11,27,09,37,11.70
2014,11,27,09,38,11.70
2014,11,27,09,39,11.70
2014,11,27,09,40,11.70
2014,11,27,09,41,11.70
2014,11,27,09,42,11.80
2014,11,27,09,43,11.80
2014,11,27,09,44,11.80
2014,11,27,09,45,11.90
2014,11,27,09,46,12.00
2014,11,27,09,47,12.00
2014,11,27,09,48,12.10
2014,11,27,09,49,12.10
2014,11,27,09,50,12.10
2014,11,27,09,51,12.10
2014,11,27,09,52,12.10
2014,11,27,09,53,12.10
2014,11,27,09,54,12.20
2014,11,27,09,55,12.20
2014,11,27,09,56,12.20
2014,11,27,09,57,12.20
2014,11,27,09,58,12.20
2014,11,27,09,59,12.30
2014,11,27,10,00,12.30
2014,11,27,10,01,12.30
2014,11,27,10,02,12.30
2014,11,27,10,03,12.30
2014,11,27,10,04,12.30
2014,11,27,10,05,12.30
2014,11,27,10,06,12.30
2014,11,27,10,07,12.30
2014,11,27,10,08,12.30
2014,11,27,10,09,12.30
2014,11,27,10,10,12.30
2014,11,27,10,11,12.30
2014,11,27,10,12,12.30
2014,11,27,10,13,12.30
2014,11,27,10,14,12.30
2014,11,27,10,15,12.30
2014,11,27,10,16,12.30
2014,11,27,10,17,12.30
2014,11,27,10,18,12.40
2014,11,27,10,19,12.40
2014,11,27,10,20,12.40
2014,11,27,10,21,12.40
2014,11,27,10,22,12.40
2014,11,27,10,23,12.30
2014,11,27,10,24,12.30
2014,11,27,10,25,12.40
2014,11,27,10,26,12.40
2014,11,27,10,27,12.40
2014,11,27,10,28,12.40
2014,11,27,10,29,12.50
2014,11,27,10,30,12.50
2014,11,27,10,31,12.50
2014,11,27,10,32,12.50
2014,11,27,10,33,12.50
2014,11,27,10,34,12.50
2014,11,27,10,35,12.50
2014,11,27,10,36,12.40
2014,11,27,10,37,12.40
2014,11,27,10,38,12.40
2014,11,27,10,39,12.30
2014,11,27,10,40,12.20
2014,11,27,10,41,12.20
2014,11,27,10,42,12.20
2014,11,27,10,43,12.20
2014,11,27,10,44,12.20
2014,11,27,10,45,12.20
2014,11,27,10,46,12.20
2014,11,27,10,47,12.20
2014,11,27,10,48,12.20
2014,11,27,10,49,12.20
2014,11,27,10,50,12.20
2014,11,27,10,51,12.20
2014,11,27,10,52,12.30
2014,11,27,10,53,12.30
2014,11,27,10,54,12.30
2014,11,27,10,55,12.30
2014,11,27,10,56,12.30
2014,11,27,10,57,12.30
2014,11,27,10,58,12.30
2014,11,27,10,59,12.40
2014,11,27,11,00,12.40
2014,11,27,11,01,12.40
2014,11,27,11,02,12.40
2014,11,27,11,03,12.40
2014,11,27,11,04,12.40
2014,11,27,11,05,12.40
2014,11,27,11,06,12.40
2014,11,27,11,07,12.40
2014,11,27,11,08,12.40
2014,11,27,11,09,12.50
2014,11,27,11,10,12.50
2014,11,27,11,11,12.50
2014,11,27,11,12,12.60
2014,11,27,11,13,12.60
2014,11,27,11,14,12.60
2014,11,27,11,15,12.60
2014,11,27,11,16,12.70
2014,11,27,11,17,12.70
2014,11,27,11,18,12.70
2014,11,27,11,19,12.70
2014,11,27,11,20,12.80
2014,11,27,11,21,12.80
2014,11,27,11,22,12.80
2014,11,27,11,23,12.80
2014,11,27,11,24,12.90
2014,11,27,11,25,12.90
2014,11,27,11,26,12.90
2014,11,27,11,27,13.00
2014,11,27,11,28,13.00
2014,11,27,11,29,13.10
2014,11,27,11,30,13.10
2014,11,27,11,31,13.10
2014,11,27,11,32,13.20
2014,11,27,11,33,13.10
2014,11,27,11,34,13.10
2014,11,27,11,35,13.10
2014,11,27,11,36,13.10
2014,11,27,11,37,13.10
2014,11,27,11,38,13.10
2014,11,27,11,39,13.10
2014,11,27,11,40,13.10
2014,11,27,11,41,13.10
2014,11,27,11,42,13.10
2014,11,27,11,43,13.10
2014,11,27,11,44,13.10
2014,11,27,11,45,13.10
2014,11,27,11,46,13.10
2014,11,27,11,47,13.10
2014,11,27,11,48,13.10
2014,11,27,11,49,13.20
2014,11,27,11,50,13.20
2014,11,27,11,51,13.20
2014,11,27,11,52,13.20
2014,11,27,11,53,13.20
2014,11,27,11,54,13.20
2014,11,27,11,55,13.20
2014,11,27,11,56,13.20
2014,11,27,11,57,13.20
2014,11,27,11,58,13.10
2014,11,27,11,59,13.10
2014,11,27,12,00,13.10
2014,11,27,12,01,13.10
2014,11,27,12,02,13.10
2014,11,27,12,03,13.00
2014,11,27,12,04,13.00
2014,11,27,12,05,13.00
2014,11,27,12,06,13.00
2014,11,27,12,07,13.00
2014,11,27,12,08,13.00
2014,11,27,12,09,13.00
2014,11,27,12,10,12.90
2014,11,27,12,11,12.90
2014,11,27,12,12,12.90
2014,11,27,12,13,13.00
2014,11,27,12,14,13.00
2014,11,27,12,15,13.00
2014,11,27,12,16,13.00
2014,11,27,12,17,13.10
2014,11,27,12,18,13.10
2014,11,27,12,19,13.10
2014,11,27,12,20,13.10
2014,11,27,12,21,13.10
2014,11,27,12,22,13.20
2014,11,27,12,23,13.20
2014,11,27,12,24,13.30
2014,11,27,12,25,13.30
2014,11,27,12,26,13.30
2014,11,27,12,27,13.40
2014,11,27,12,28,13.40
2014,11,27,12,29,13.40
2014,11,27,12,30,13.40
2014,11,27,12,31,13.40
2014,11,27,12,32,13.50
2014,11,27,12,33,13.50
2014,11,27,12,34,13.50
2014,11,27,12,35,13.60
2014,11,27,12,36,13.60
2014,11,27,12,37,13.70
2014,11,27,12,38,13.70
2014,11,27,12,39,13.70
2014,11,27,12,40,13.70
2014,11,27,12,41,13.80
2014,11,27,12,42,13.80
2014,11,27,12,43,13.90
2014,11,27,12,44,13.90
2014,11,27,12,45,14.00
2014,11,27,12,46,14.10
2014,11,27,12,47,14.10
2014,11,27,12,48,14.00
2014,11,27,12,49,13.90
2014,11,27,12,50,13.90
2014,11,27,12,51,14.00
2014,11,27,12,52,14.00
2014,11,27,12,53,14.00
2014,11,27,12,54,14.00
2014,11,27,12,55,14.00
2014,11,27,12,56,14.00
2014,11,27,12,57,14.00
2014,11,27,12,58,14.10
2014,11,27,12,59,14.10
2014,11,27,13,00,14.10
2014,11,27,13,01,14.10
2014,11,27,13,02,14.10
2014,11,27,13,03,14.10
2014,11,27,13,04,14.10
2014,11,27,13,05,14.00
2014,11,27,13,06,14.00
2014,11,27,13,07,14.00
2014,11,27,13,08,14.00
2014,11,27,13,09,14.00
2014,11,27,13,10,14.00
2014,11,27,13,11,14.00
2014,11,27,13,12,14.00
2014,11,27,13,13,14.00
2014,11,27,13,14,14.00
2014,11,27,13,15,14.00
2014,11,27,13,16,14.00
2014,11,27,13,17,14.10
2014,11,27,13,18,14.10
2014,11,27,13,19,14.10
2014,11,27,13,20,14.10
2014,11,27,13,21,14.10
2014,11,27,13,22,14.00
2014,11,27,13,23,14.00
2014,11,27,13,24,14.00
2014,11,27,13,25,14.00
2014,11,27,13,26,14.00
2014,11,27,13,27,14.10
2014,11,27,13,28,14.10
2014,11,27,13,29,14.10
2014,11,27,13,30,14.10
2014,11,27,13,31,14.10
2014,11,27,13,32,14.10
2014,11,27,13,33,14.10
2014,11,27,13,34,14.10
2014,11,27,13,35,14.10
2014,11,27,13,36,14.10
2014,11,27,13,37,14.10
2014,11,27,13,38,14.10
2014,11,27,13,39,14.10
2014,11,27,13,40,14.10
2014,11,27,13,41,14.10
2014,11,27,13,42,14.10
2014,11,27,13,43,14.10
2014,11,27,13,44,14.10
2014,11,27,13,45,14.10
2014,11,27,13,46,14.10
2014,11,27,13,47,14.10
2014,11,27,13,48,14.10
2014,11,27,13,49,14.10
2014,11,27,13,50,14.10
2014,11,27,13,51,14.10
2014,11,27,13,52,14.10
2014,11,27,13,53,14.10
2014,11,27,13,54,14.10
2014,11,27,13,55,14.10
2014,11,27,13,56,14.10
2014,11,27,13,57,14.10
2014,11,27,13,58,14.10
